23-05-2023, 00:00:10,      9,    0.0,    8.9,   0.00,   0.00, 1021.9,   59.9, -999.0
23-05-2023, 00:00:19,     17,    0.0,    8.8,   0.00,   0.00, 1022.0,   59.9, -999.0
23-05-2023, 00:00:29,     16,    0.0,    8.7,   0.00,   0.00, 1022.0,   59.8, -999.0
23-05-2023, 00:00:39,      0,    0.0,    8.9,   0.00,   0.00, 1021.9,   59.8, -999.0
23-05-2023, 00:00:49,      0,    0.0,    8.9,   0.00,   0.00, 1021.9,   59.9, -999.0
23-05-2023, 00:00:59,      0,    0.0,    8.9,   0.00,   0.00, 1021.9,   59.7, -999.0
23-05-2023, 00:01:09,      0,    0.0,    8.8,   0.00,   0.00, 1021.9,   59.7, -999.0
23-05-2023, 00:01:19,      7,    0.0,    8.8,   0.00,   0.00, 1021.9,   59.7, -999.0
23-05-2023, 00:01:29,      0,    0.0,    8.9,   0.00,   0.00, 1021.9,   59.6, -999.0
23-05-2023, 00:01:39,      0,    0.0,    8.8,   0.00,   0.00, 1021.9,   59.7, -999.0
23-05-2023, 00:01:49,     13,    0.0,    8.9,   0.00,   0.00, 1021.9,   59.6, -999.0
23-05-2023, 00:01:59,      0,    0.0,    8.9,   0.00,   0.00, 1021.9,   59.6, -999.0
23-05-2023, 00:02:09,      0,    0.0,    8.8,   0.00,   0.00, 1021.9,   59.6, -999.0
23-05-2023, 00:02:19,      0,    0.0,    8.9,   0.00,   0.00, 1021.9,   59.7, -999.0
23-05-2023, 00:02:29,      0,    0.0,    8.9,   0.00,   0.00, 1021.9,   59.7, -999.0
23-05-2023, 00:02:39,      0,    0.0,    8.9,   0.00,   0.00, 1021.9,   59.8, -999.0
23-05-2023, 00:02:49,      0,    0.0,    8.9,   0.00,   0.00, 1021.9,   59.6, -999.0
23-05-2023, 00:02:59,      0,    0.0,    8.9,   0.00,   0.00, 1021.9,   59.7, -999.0
23-05-2023, 00:03:09,      0,    0.0,    8.9,   0.00,   0.00, 1021.9,   59.8, -999.0
23-05-2023, 00:03:19,     15,    0.0,    8.9,   0.00,   0.00, 1021.9,   59.7, -999.0
23-05-2023, 00:03:29,      0,    0.0,    8.9,   0.00,   0.00, 1021.9,   59.7, -999.0
23-05-2023, 00:03:39,      0,    0.0,    8.8,   0.00,   0.00, 1021.9,   59.2, -999.0
23-05-2023, 00:03:49,      0,    0.0,    8.7,   0.00,   0.00, 1021.9,   59.3, -999.0
23-05-2023, 00:03:59,      0,    0.0,    8.8,   0.00,   0.00, 1021.9,   59.2, -999.0
23-05-2023, 00:04:09,      0,    0.0,    8.8,   0.00,   0.00, 1021.9,   59.1, -999.0
23-05-2023, 00:04:19,      0,    0.0,    8.8,   0.00,   0.00, 1021.9,   59.5, -999.0
23-05-2023, 00:04:29,     13,    0.0,    8.7,   0.00,   0.00, 1021.9,   59.5, -999.0
23-05-2023, 00:04:39,      0,    0.0,    8.8,   0.00,   0.00, 1021.9,   59.5, -999.0
23-05-2023, 00:04:50,      0,    0.0,    8.8,   0.00,   0.00, 1022.0,   59.6, -999.0
23-05-2023, 00:04:59,      0,    0.0,    8.7,   0.00,   0.00, 1022.0,   59.6, -999.0
23-05-2023, 00:05:09,      0,    0.0,    8.7,   0.00,   0.00, 1021.9,   59.6, -999.0
23-05-2023, 00:05:19,     16,    0.0,    8.7,   0.00,   0.00, 1022.0,   59.6, -999.0
23-05-2023, 00:05:29,      0,    0.0,    8.6,   0.00,   0.00, 1022.0,   59.6, -999.0
23-05-2023, 00:05:39,     13,    0.0,    8.8,   0.00,   0.00, 1021.9,   59.6, -999.0
23-05-2023, 00:05:49,     13,    0.0,    8.7,   0.00,   0.00, 1021.9,   59.7, -999.0
23-05-2023, 00:05:59,      0,    0.0,    8.6,   0.00,   0.00, 1022.0,   59.8, -999.0
23-05-2023, 00:06:09,      0,    0.0,    8.7,   0.00,   0.00, 1022.0,   59.9, -999.0
23-05-2023, 00:06:19,      0,    0.0,    8.8,   0.00,   0.00, 1022.0,   59.7, -999.0
23-05-2023, 00:06:28,     13,    0.0,    8.7,   0.00,   0.00, 1022.0,   59.6, -999.0
23-05-2023, 00:06:39,      0,    0.0,    8.6,   0.00,   0.00, 1022.0,   59.6, -999.0
23-05-2023, 00:06:49,      8,    0.0,    8.6,   0.00,   0.00, 1022.0,   59.6, -999.0
23-05-2023, 00:06:58,      3,    0.0,    8.7,   0.00,   0.00, 1022.0,   59.5, -999.0
23-05-2023, 00:07:08,      0,    0.0,    8.6,   0.00,   0.00, 1022.0,   59.7, -999.0
23-05-2023, 00:07:19,      0,    0.0,    8.6,   0.00,   0.00, 1022.0,   59.8, -999.0
23-05-2023, 00:07:29,      0,    0.0,    8.6,   0.00,   0.00, 1022.0,   59.8, -999.0
23-05-2023, 00:07:38,      7,    0.0,    8.7,   0.00,   0.00, 1022.0,   59.8, -999.0
23-05-2023, 00:07:48,      0,    0.0,    8.6,   0.00,   0.00, 1022.0,   59.9, -999.0
23-05-2023, 00:07:59,      0,    0.0,    8.5,   0.00,   0.00, 1022.0,   60.0, -999.0
23-05-2023, 00:08:08,      1,    0.0,    8.6,   0.00,   0.00, 1022.0,   60.1, -999.0
23-05-2023, 00:08:18,      0,    0.0,    8.5,   0.00,   0.00, 1022.0,   60.2, -999.0
23-05-2023, 00:08:28,      0,    0.0,    8.5,   0.00,   0.00, 1022.0,   60.1, -999.0
23-05-2023, 00:08:39,      0,    0.0,    8.5,   0.00,   0.00, 1022.0,   60.0, -999.0
23-05-2023, 00:08:48,      0,    0.0,    8.4,   0.00,   0.00, 1022.0,   60.1, -999.0
23-05-2023, 00:08:58,      0,    0.0,    8.5,   0.00,   0.00, 1021.9,   60.0, -999.0
23-05-2023, 00:09:09,      0,    0.0,    8.4,   0.00,   0.00, 1022.0,   60.1, -999.0
23-05-2023, 00:09:18,     17,    0.0,    8.4,   0.00,   0.00, 1022.0,   60.2, -999.0
23-05-2023, 00:09:28,     17,    0.0,    8.4,   0.00,   0.00, 1022.0,   60.2, -999.0
23-05-2023, 00:09:38,      0,    0.0,    8.4,   0.00,   0.00, 1022.0,   60.3, -999.0
23-05-2023, 00:09:48,     13,    0.0,    8.4,   0.00,   0.00, 1022.0,   60.4, -999.0
23-05-2023, 00:09:58,      9,    0.0,    8.3,   0.00,   0.00, 1022.0,   60.4, -999.0
23-05-2023, 00:10:08,      0,    0.0,    8.3,   0.00,   0.00, 1022.0,   60.4, -999.0
23-05-2023, 00:10:18,      0,    0.0,    8.3,   0.00,   0.00, 1022.0,   60.3, -999.0
23-05-2023, 00:10:28,      0,    0.0,    8.3,   0.00,   0.00, 1022.0,   60.3, -999.0
23-05-2023, 00:10:38,      1,    0.0,    8.3,   0.00,   0.00, 1022.0,   60.4, -999.0
23-05-2023, 00:10:48,     10,    0.0,    8.3,   0.00,   0.00, 1022.0,   60.4, -999.0
23-05-2023, 00:10:58,      0,    0.0,    8.3,   0.00,   0.00, 1022.0,   60.5, -999.0
23-05-2023, 00:11:08,      0,    0.0,    8.3,   0.00,   0.00, 1022.0,   60.5, -999.0
23-05-2023, 00:11:18,      0,    0.0,    8.3,   0.00,   0.00, 1022.0,   60.5, -999.0
23-05-2023, 00:11:28,      0,    0.0,    8.3,   0.00,   0.00, 1022.0,   60.7, -999.0
23-05-2023, 00:11:38,      0,    0.0,    8.3,   0.00,   0.00, 1022.0,   60.6, -999.0
23-05-2023, 00:11:48,     16,    0.0,    8.2,   0.00,   0.00, 1022.0,   60.5, -999.0
23-05-2023, 00:11:58,      0,    0.0,    8.2,   0.00,   0.00, 1022.0,   60.7, -999.0
23-05-2023, 00:12:08,      0,    0.0,    8.3,   0.00,   0.00, 1022.0,   60.6, -999.0
23-05-2023, 00:12:18,      0,    0.0,    8.3,   0.00,   0.00, 1022.0,   60.7, -999.0
23-05-2023, 00:12:28,      0,    0.0,    8.3,   0.00,   0.00, 1022.0,   60.7, -999.0
23-05-2023, 00:12:38,      0,    0.0,    8.1,   0.00,   0.00, 1022.0,   60.8, -999.0
23-05-2023, 00:12:48,      0,    0.0,    8.2,   0.00,   0.00, 1022.0,   60.9, -999.0
23-05-2023, 00:12:58,      0,    0.0,    8.2,   0.00,   0.00, 1022.0,   60.8, -999.0
23-05-2023, 00:13:08,      0,    0.0,    8.2,   0.00,   0.00, 1022.0,   60.8, -999.0
23-05-2023, 00:13:18,      0,    0.0,    8.2,   0.00,   0.00, 1022.0,   60.9, -999.0
23-05-2023, 00:13:28,      2,    0.0,    8.3,   0.00,   0.00, 1022.0,   60.8, -999.0
23-05-2023, 00:13:38,      0,    0.0,    8.2,   0.00,   0.00, 1022.0,   60.9, -999.0
23-05-2023, 00:13:48,      0,    0.0,    8.2,   0.00,   0.00, 1022.0,   60.8, -999.0
23-05-2023, 00:13:58,      0,    0.0,    8.2,   0.00,   0.00, 1022.0,   60.8, -999.0
23-05-2023, 00:14:08,      0,    0.0,    8.2,   0.00,   0.00, 1021.9,   60.8, -999.0
23-05-2023, 00:14:18,      0,    0.0,    8.2,   0.00,   0.00, 1022.0,   60.8, -999.0
23-05-2023, 00:14:28,      0,    0.0,    8.3,   0.00,   0.00, 1022.0,   60.8, -999.0
23-05-2023, 00:14:38,      0,    0.0,    8.3,   0.00,   0.00, 1021.9,   60.8, -999.0
23-05-2023, 00:14:47,      0,    0.0,    8.2,   0.00,   0.00, 1022.0,   60.8, -999.0
23-05-2023, 00:14:58,      0,    0.0,    8.2,   0.00,   0.00, 1022.0,   60.8, -999.0
23-05-2023, 00:15:08,      0,    0.0,    8.2,   0.00,   0.00, 1022.0,   60.8, -999.0
23-05-2023, 00:15:17,      0,    0.0,    8.1,   0.00,   0.00, 1022.0,   60.9, -999.0
23-05-2023, 00:15:27,      0,    0.0,    8.2,   0.00,   0.00, 1021.9,   60.7, -999.0
23-05-2023, 00:15:38,      0,    0.0,    8.3,   0.00,   0.00, 1021.9,   60.6, -999.0
23-05-2023, 00:15:47,      0,    0.0,    8.2,   0.00,   0.00, 1022.0,   60.6, -999.0
23-05-2023, 00:15:57,      0,    0.0,    8.2,   0.00,   0.00, 1022.0,   60.6, -999.0
23-05-2023, 00:16:07,      0,    0.0,    8.2,   0.00,   0.00, 1021.9,   60.6, -999.0
23-05-2023, 00:16:18,      0,    0.0,    8.2,   0.00,   0.00, 1021.9,   60.7, -999.0
23-05-2023, 00:16:27,      0,    0.0,    8.3,   0.00,   0.00, 1022.0,   60.6, -999.0
23-05-2023, 00:16:37,      0,    0.0,    8.3,   0.00,   0.00, 1021.9,   60.8, -999.0
23-05-2023, 00:16:47,      0,    0.0,    8.2,   0.00,   0.00, 1022.0,   60.7, -999.0
23-05-2023, 00:16:58,     16,    0.0,    8.2,   0.00,   0.00, 1022.0,   60.8, -999.0
23-05-2023, 00:17:07,      0,    0.0,    8.3,   0.00,   0.00, 1021.9,   60.7, -999.0
23-05-2023, 00:17:17,      0,    0.0,    8.2,   0.00,   0.00, 1021.9,   60.8, -999.0
23-05-2023, 00:17:27,      0,    0.0,    8.2,   0.00,   0.00, 1022.0,   60.8, -999.0
23-05-2023, 00:17:37,      0,    0.0,    8.2,   0.00,   0.00, 1021.9,   60.8, -999.0
23-05-2023, 00:17:47,      0,    0.0,    8.2,   0.00,   0.00, 1022.0,   60.9, -999.0
23-05-2023, 00:17:57,      0,    0.0,    8.2,   0.00,   0.00, 1022.0,   61.0, -999.0
23-05-2023, 00:18:07,      0,    0.0,    8.2,   0.00,   0.00, 1022.0,   60.9, -999.0
23-05-2023, 00:18:17,      0,    0.0,    8.2,   0.00,   0.00, 1021.9,   60.9, -999.0
23-05-2023, 00:18:27,      0,    0.0,    8.2,   0.00,   0.00, 1021.9,   60.9, -999.0
23-05-2023, 00:18:37,      0,    0.0,    8.2,   0.00,   0.00, 1022.0,   61.0, -999.0
23-05-2023, 00:18:47,      0,    0.0,    8.2,   0.00,   0.00, 1022.0,   61.0, -999.0
23-05-2023, 00:18:57,      0,    0.0,    8.2,   0.00,   0.00, 1022.0,   60.9, -999.0
23-05-2023, 00:19:07,     16,    0.0,    8.3,   0.00,   0.00, 1022.0,   61.0, -999.0
23-05-2023, 00:19:17,     16,    0.0,    8.3,   0.00,   0.00, 1021.9,   60.9, -999.0
23-05-2023, 00:19:27,      0,    0.0,    8.3,   0.00,   0.00, 1022.0,   60.8, -999.0
23-05-2023, 00:19:37,      0,    0.0,    8.3,   0.00,   0.00, 1021.9,   60.8, -999.0
23-05-2023, 00:19:47,      0,    0.0,    8.3,   0.00,   0.00, 1022.0,   60.7, -999.0
23-05-2023, 00:19:57,      0,    0.0,    8.2,   0.00,   0.00, 1022.0,   60.8, -999.0
23-05-2023, 00:20:07,      0,    0.0,    8.2,   0.00,   0.00, 1022.0,   60.9, -999.0
23-05-2023, 00:20:17,      0,    0.0,    8.3,   0.00,   0.00, 1022.0,   60.9, -999.0
23-05-2023, 00:20:27,      0,    0.0,    8.2,   0.00,   0.00, 1022.0,   61.0, -999.0
23-05-2023, 00:20:37,     15,    0.0,    8.3,   0.00,   0.00, 1022.0,   60.9, -999.0
23-05-2023, 00:20:47,     10,    0.0,    8.2,   0.00,   0.00, 1022.0,   60.8, -999.0
23-05-2023, 00:20:57,      0,    0.0,    8.3,   0.00,   0.00, 1022.0,   60.8, -999.0
23-05-2023, 00:21:07,      0,    0.0,    8.3,   0.00,   0.00, 1021.9,   60.6, -999.0
23-05-2023, 00:21:17,     12,    0.0,    8.2,   0.00,   0.00, 1021.9,   60.5, -999.0
23-05-2023, 00:21:27,      0,    0.0,    8.3,   0.00,   0.00, 1021.9,   60.4, -999.0
23-05-2023, 00:21:37,      0,    0.0,    8.2,   0.00,   0.00, 1021.9,   60.4, -999.0
23-05-2023, 00:21:47,      0,    0.0,    8.3,   0.00,   0.00, 1021.9,   60.4, -999.0
23-05-2023, 00:21:57,      0,    0.0,    8.3,   0.00,   0.00, 1021.9,   60.5, -999.0
23-05-2023, 00:22:07,      0,    0.0,    8.3,   0.00,   0.00, 1021.9,   60.5, -999.0
23-05-2023, 00:22:17,      0,    0.0,    8.3,   0.00,   0.00, 1021.9,   60.6, -999.0
23-05-2023, 00:22:27,      0,    0.0,    8.3,   0.00,   0.00, 1021.9,   60.6, -999.0
23-05-2023, 00:22:37,     13,    0.0,    8.3,   0.00,   0.00, 1021.9,   60.4, -999.0
23-05-2023, 00:22:47,      0,    0.0,    8.3,   0.00,   0.00, 1021.9,   60.4, -999.0
23-05-2023, 00:22:57,      0,    0.0,    8.3,   0.00,   0.00, 1021.9,   60.4, -999.0
23-05-2023, 00:23:07,      0,    0.0,    8.3,   0.00,   0.00, 1021.9,   60.4, -999.0
23-05-2023, 00:23:16,      0,    0.0,    8.3,   0.00,   0.00, 1021.9,   60.3, -999.0
23-05-2023, 00:23:27,      0,    0.0,    8.3,   0.00,   0.00, 1021.9,   60.4, -999.0
23-05-2023, 00:23:37,      0,    0.0,    8.1,   0.00,   0.00, 1021.9,   60.4, -999.0
23-05-2023, 00:23:47,      0,    0.0,    8.3,   0.00,   0.00, 1021.9,   60.5, -999.0
23-05-2023, 00:23:56,      2,    0.0,    8.2,   0.00,   0.00, 1021.9,   60.4, -999.0
23-05-2023, 00:24:07,      0,    0.0,    8.2,   0.00,   0.00, 1021.9,   60.5, -999.0
23-05-2023, 00:24:17,      0,    0.0,    8.2,   0.00,   0.00, 1021.9,   60.5, -999.0
23-05-2023, 00:24:26,      0,    0.0,    8.3,   0.00,   0.00, 1021.9,   60.5, -999.0
23-05-2023, 00:24:36,      0,    0.0,    8.3,   0.00,   0.00, 1021.9,   60.5, -999.0
23-05-2023, 00:24:47,      0,    0.0,    8.2,   0.00,   0.00, 1021.9,   60.5, -999.0
23-05-2023, 00:24:57,      3,    0.0,    8.2,   0.00,   0.00, 1021.9,   60.6, -999.0
23-05-2023, 00:25:06,      0,    0.0,    8.2,   0.00,   0.00, 1021.9,   60.5, -999.0
23-05-2023, 00:25:16,      0,    0.0,    8.3,   0.00,   0.00, 1021.9,   60.6, -999.0
23-05-2023, 00:25:27,      0,    0.0,    8.2,   0.00,   0.00, 1021.9,   60.7, -999.0
23-05-2023, 00:25:36,      0,    0.0,    8.2,   0.00,   0.00, 1021.9,   60.8, -999.0
23-05-2023, 00:25:46,      5,    0.0,    8.2,   0.00,   0.00, 1021.9,   60.8, -999.0
23-05-2023, 00:25:56,      0,    0.0,    8.2,   0.00,   0.00, 1021.9,   60.8, -999.0
23-05-2023, 00:26:07,      0,    0.0,    8.2,   0.00,   0.00, 1021.9,   60.8, -999.0
23-05-2023, 00:26:16,      0,    0.0,    8.1,   0.00,   0.00, 1021.9,   60.8, -999.0
23-05-2023, 00:26:26,      0,    0.0,    8.2,   0.00,   0.00, 1021.9,   60.7, -999.0
23-05-2023, 00:26:36,      0,    0.0,    8.1,   0.00,   0.00, 1021.9,   60.7, -999.0
23-05-2023, 00:26:46,      0,    0.0,    8.0,   0.00,   0.00, 1021.9,   60.7, -999.0
23-05-2023, 00:26:56,      0,    0.0,    8.1,   0.00,   0.00, 1021.9,   60.8, -999.0
23-05-2023, 00:27:06,     17,    0.0,    8.1,   0.00,   0.00, 1021.9,   60.8, -999.0
23-05-2023, 00:27:16,      0,    0.0,    8.1,   0.00,   0.00, 1021.9,   60.8, -999.0
23-05-2023, 00:27:26,      0,    0.0,    8.0,   0.00,   0.00, 1021.9,   60.8, -999.0
23-05-2023, 00:27:36,     16,    0.0,    8.1,   0.00,   0.00, 1021.9,   61.0, -999.0
23-05-2023, 00:27:46,      0,    0.0,    8.2,   0.00,   0.00, 1021.9,   61.1, -999.0
23-05-2023, 00:27:56,      0,    0.0,    8.2,   0.00,   0.00, 1021.9,   61.1, -999.0
23-05-2023, 00:28:06,     11,    0.0,    8.2,   0.00,   0.00, 1021.9,   61.2, -999.0
23-05-2023, 00:28:16,      0,    0.0,    8.2,   0.00,   0.00, 1021.9,   61.1, -999.0
23-05-2023, 00:28:28,     16,    0.0,    8.1,   0.00,   0.00, 1021.9,   61.1, -999.0
23-05-2023, 00:28:36,      0,    0.0,    8.1,   0.00,   0.00, 1021.9,   61.2, -999.0
23-05-2023, 00:28:46,      0,    0.0,    8.2,   0.00,   0.00, 1021.9,   61.0, -999.0
23-05-2023, 00:28:56,      0,    0.0,    8.1,   0.00,   0.00, 1021.9,   61.0, -999.0
23-05-2023, 00:29:06,      7,    0.0,    8.2,   0.00,   0.00, 1021.9,   61.1, -999.0
23-05-2023, 00:29:16,      0,    0.0,    8.2,   0.00,   0.00, 1021.9,   61.0, -999.0
23-05-2023, 00:29:26,      0,    0.0,    8.1,   0.00,   0.00, 1021.9,   61.1, -999.0
23-05-2023, 00:29:36,      8,    0.0,    8.1,   0.00,   0.00, 1021.9,   61.0, -999.0
23-05-2023, 00:29:46,      0,    0.0,    8.1,   0.00,   0.00, 1021.9,   61.1, -999.0
23-05-2023, 00:29:56,      0,    0.0,    8.2,   0.00,   0.00, 1021.9,   61.0, -999.0
23-05-2023, 00:30:06,      7,    0.0,    8.1,   0.00,   0.00, 1021.9,   61.0, -999.0
23-05-2023, 00:30:16,      0,    0.0,    8.2,   0.00,   0.00, 1021.9,   61.0, -999.0
23-05-2023, 00:30:26,      0,    0.0,    8.1,   0.00,   0.00, 1021.9,   61.0, -999.0
23-05-2023, 00:30:36,     17,    0.0,    8.1,   0.00,   0.00, 1021.9,   61.1, -999.0
23-05-2023, 00:30:46,      0,    0.0,    8.0,   0.00,   0.00, 1021.9,   61.0, -999.0
23-05-2023, 00:30:56,      0,    0.0,    8.1,   0.00,   0.00, 1021.9,   61.2, -999.0
23-05-2023, 00:31:06,      0,    0.0,    8.1,   0.00,   0.00, 1021.9,   61.0, -999.0
23-05-2023, 00:31:15,     11,    0.0,    8.2,   0.00,   0.00, 1021.9,   61.1, -999.0
23-05-2023, 00:31:26,      0,    0.0,    8.2,   0.00,   0.00, 1021.9,   61.1, -999.0
23-05-2023, 00:31:36,      0,    0.0,    8.1,   0.00,   0.00, 1022.0,   61.3, -999.0
23-05-2023, 00:31:45,      0,    0.0,    8.1,   0.00,   0.00, 1022.0,   61.2, -999.0
23-05-2023, 00:31:56,     15,    0.0,    8.1,   0.00,   0.00, 1022.0,   61.1, -999.0
23-05-2023, 00:32:06,     17,    0.0,    8.1,   0.00,   0.00, 1021.9,   61.2, -999.0
23-05-2023, 00:32:16,      0,    0.0,    8.2,   0.00,   0.00, 1022.0,   61.3, -999.0
23-05-2023, 00:32:25,      0,    0.0,    8.2,   0.00,   0.00, 1021.9,   61.2, -999.0
23-05-2023, 00:32:36,      0,    0.0,    8.1,   0.00,   0.00, 1021.9,   61.2, -999.0
23-05-2023, 00:32:46,      0,    0.0,    8.1,   0.00,   0.00, 1021.9,   61.2, -999.0
23-05-2023, 00:32:55,     16,    0.0,    8.2,   0.00,   0.00, 1021.9,   61.1, -999.0
23-05-2023, 00:33:05,      0,    0.0,    8.2,   0.00,   0.00, 1021.9,   61.2, -999.0
23-05-2023, 00:33:16,      7,    0.0,    8.2,   0.00,   0.00, 1021.9,   61.2, -999.0
23-05-2023, 00:33:26,      0,    0.0,    8.2,   0.00,   0.00, 1022.0,   61.2, -999.0
23-05-2023, 00:33:35,     15,    0.0,    8.1,   0.00,   0.00, 1021.9,   61.3, -999.0
23-05-2023, 00:33:45,      0,    0.0,    8.2,   0.00,   0.00, 1021.9,   61.3, -999.0
23-05-2023, 00:33:56,      0,    0.0,    8.1,   0.00,   0.00, 1021.9,   61.2, -999.0
23-05-2023, 00:34:05,      0,    0.0,    8.0,   0.00,   0.00, 1022.0,   61.3, -999.0
23-05-2023, 00:34:15,      0,    0.0,    8.2,   0.00,   0.00, 1021.9,   61.2, -999.0
23-05-2023, 00:34:25,      0,    0.0,    8.1,   0.00,   0.00, 1022.0,   61.2, -999.0
23-05-2023, 00:34:35,      0,    0.0,    8.1,   0.00,   0.00, 1022.0,   61.2, -999.0
23-05-2023, 00:34:45,      0,    0.0,    8.1,   0.00,   0.00, 1021.9,   61.4, -999.0
23-05-2023, 00:34:55,      0,    0.0,    8.2,   0.00,   0.00, 1021.9,   61.4, -999.0
23-05-2023, 00:35:05,      0,    0.0,    8.1,   0.00,   0.00, 1021.9,   61.3, -999.0
23-05-2023, 00:35:15,      0,    0.0,    8.1,   0.00,   0.00, 1021.9,   61.5, -999.0
23-05-2023, 00:35:25,      0,    0.0,    8.1,   0.00,   0.00, 1022.0,   61.4, -999.0
23-05-2023, 00:35:35,      0,    0.0,    8.0,   0.00,   0.00, 1021.9,   61.4, -999.0
23-05-2023, 00:35:45,      0,    0.0,    8.1,   0.00,   0.00, 1021.9,   61.5, -999.0
23-05-2023, 00:35:55,      0,    0.0,    8.1,   0.00,   0.00, 1021.9,   61.4, -999.0
23-05-2023, 00:36:05,      0,    0.0,    8.1,   0.00,   0.00, 1021.9,   61.5, -999.0
23-05-2023, 00:36:15,      0,    0.0,    8.1,   0.00,   0.00, 1021.9,   61.5, -999.0
23-05-2023, 00:36:25,      0,    0.0,    8.2,   0.00,   0.00, 1021.9,   61.5, -999.0
23-05-2023, 00:36:35,      7,    0.0,    8.2,   0.00,   0.00, 1021.9,   61.5, -999.0
23-05-2023, 00:36:45,      0,    0.0,    8.1,   0.00,   0.00, 1021.9,   61.7, -999.0
23-05-2023, 00:36:55,      0,    0.0,    8.1,   0.00,   0.00, 1021.9,   61.5, -999.0
23-05-2023, 00:37:05,      1,    0.0,    8.1,   0.00,   0.00, 1021.9,   61.6, -999.0
23-05-2023, 00:37:15,      0,    0.0,    8.1,   0.00,   0.00, 1021.9,   61.6, -999.0
23-05-2023, 00:37:25,      0,    0.0,    8.1,   0.00,   0.00, 1021.9,   61.5, -999.0
23-05-2023, 00:37:35,      0,    0.0,    8.1,   0.00,   0.00, 1021.9,   61.7, -999.0
23-05-2023, 00:37:45,      0,    0.0,    8.0,   0.00,   0.00, 1021.9,   61.8, -999.0
23-05-2023, 00:37:55,     15,    0.0,    8.0,   0.00,   0.00, 1021.9,   61.7, -999.0
23-05-2023, 00:38:05,      0,    0.0,    7.9,   0.00,   0.00, 1021.9,   61.9, -999.0
23-05-2023, 00:38:15,      0,    0.0,    8.0,   0.00,   0.00, 1021.9,   61.9, -999.0
23-05-2023, 00:38:25,      0,    0.0,    8.1,   0.00,   0.00, 1021.9,   62.0, -999.0
23-05-2023, 00:38:35,      0,    0.0,    8.0,   0.00,   0.00, 1021.9,   62.0, -999.0
23-05-2023, 00:38:45,      0,    0.0,    8.1,   0.00,   0.00, 1021.9,   62.1, -999.0
23-05-2023, 00:38:55,      0,    0.0,    8.1,   0.00,   0.00, 1021.9,   62.1, -999.0
23-05-2023, 00:39:05,      0,    0.0,    8.0,   0.00,   0.00, 1022.0,   62.1, -999.0
23-05-2023, 00:39:15,      0,    0.0,    8.1,   0.00,   0.00, 1021.9,   62.1, -999.0
23-05-2023, 00:39:25,      0,    0.0,    8.0,   0.00,   0.00, 1021.9,   62.1, -999.0
23-05-2023, 00:39:35,      0,    0.0,    8.0,   0.00,   0.00, 1021.9,   62.0, -999.0
23-05-2023, 00:39:45,      0,    0.0,    8.0,   0.00,   0.00, 1021.9,   62.1, -999.0
23-05-2023, 00:39:55,      0,    0.0,    8.0,   0.00,   0.00, 1021.9,   62.1, -999.0
23-05-2023, 00:40:06,      0,    0.0,    8.0,   0.00,   0.00, 1021.9,   62.2, -999.0
23-05-2023, 00:40:14,     10,    0.0,    8.0,   0.00,   0.00, 1021.9,   62.4, -999.0
23-05-2023, 00:40:25,      0,    0.0,    7.9,   0.00,   0.00, 1021.9,   62.2, -999.0
23-05-2023, 00:40:35,      0,    0.0,    7.9,   0.00,   0.00, 1021.9,   62.4, -999.0
23-05-2023, 00:40:45,     15,    0.0,    7.9,   0.00,   0.00, 1021.9,   62.5, -999.0
23-05-2023, 00:40:54,      0,    0.0,    8.0,   0.00,   0.00, 1021.9,   62.4, -999.0
23-05-2023, 00:41:05,      0,    0.0,    8.0,   0.00,   0.00, 1021.9,   62.6, -999.0
23-05-2023, 00:41:15,      0,    0.0,    7.8,   0.00,   0.00, 1022.0,   62.5, -999.0
23-05-2023, 00:41:24,      0,    0.0,    7.9,   0.00,   0.00, 1021.9,   62.5, -999.0
23-05-2023, 00:41:34,      0,    0.0,    7.8,   0.00,   0.00, 1021.9,   62.6, -999.0
23-05-2023, 00:41:45,      8,    0.0,    7.9,   0.00,   0.00, 1021.9,   62.5, -999.0
23-05-2023, 00:41:54,      0,    0.0,    7.8,   0.00,   0.00, 1021.9,   62.5, -999.0
23-05-2023, 00:42:04,      0,    0.0,    7.8,   0.00,   0.00, 1021.9,   62.6, -999.0
23-05-2023, 00:42:14,      0,    0.0,    7.9,   0.00,   0.00, 1021.9,   62.6, -999.0
23-05-2023, 00:42:25,      0,    0.0,    7.8,   0.00,   0.00, 1021.9,   62.8, -999.0
23-05-2023, 00:42:35,      0,    0.0,    7.8,   0.00,   0.00, 1021.9,   62.7, -999.0
23-05-2023, 00:42:44,      0,    0.0,    7.7,   0.00,   0.00, 1021.9,   62.8, -999.0
23-05-2023, 00:42:54,      0,    0.0,    7.9,   0.00,   0.00, 1021.9,   62.9, -999.0
23-05-2023, 00:43:04,      0,    0.0,    7.9,   0.00,   0.00, 1021.9,   63.0, -999.0
23-05-2023, 00:43:14,      0,    0.0,    7.8,   0.00,   0.00, 1021.9,   62.8, -999.0
23-05-2023, 00:43:24,      0,    0.0,    7.7,   0.00,   0.00, 1021.9,   63.0, -999.0
23-05-2023, 00:43:34,      0,    0.0,    7.8,   0.00,   0.00, 1021.9,   63.1, -999.0
23-05-2023, 00:43:44,     16,    0.0,    7.9,   0.00,   0.00, 1021.9,   63.1, -999.0
23-05-2023, 00:43:54,      0,    0.0,    7.8,   0.00,   0.00, 1021.9,   63.1, -999.0
23-05-2023, 00:44:04,      0,    0.0,    7.8,   0.00,   0.00, 1021.9,   63.2, -999.0
23-05-2023, 00:44:14,      0,    0.0,    7.8,   0.00,   0.00, 1021.9,   63.2, -999.0
23-05-2023, 00:44:24,     12,    0.0,    7.8,   0.00,   0.00, 1021.9,   63.2, -999.0
23-05-2023, 00:44:34,      0,    0.0,    7.8,   0.00,   0.00, 1021.9,   63.3, -999.0
23-05-2023, 00:44:44,      0,    0.0,    7.8,   0.00,   0.00, 1021.9,   63.2, -999.0
23-05-2023, 00:44:54,      0,    0.0,    7.8,   0.00,   0.00, 1021.9,   63.3, -999.0
23-05-2023, 00:45:04,      0,    0.0,    7.9,   0.00,   0.00, 1021.9,   63.2, -999.0
23-05-2023, 00:45:14,      0,    0.0,    7.8,   0.00,   0.00, 1021.9,   63.3, -999.0
23-05-2023, 00:45:24,      0,    0.0,    7.7,   0.00,   0.00, 1021.9,   63.4, -999.0
23-05-2023, 00:45:34,      0,    0.0,    7.8,   0.00,   0.00, 1021.9,   63.3, -999.0
23-05-2023, 00:45:44,      0,    0.0,    7.9,   0.00,   0.00, 1021.9,   63.4, -999.0
23-05-2023, 00:45:54,      0,    0.0,    7.9,   0.00,   0.00, 1021.9,   63.4, -999.0
23-05-2023, 00:46:04,     16,    0.0,    7.8,   0.00,   0.00, 1021.9,   63.3, -999.0
23-05-2023, 00:46:14,      0,    0.0,    7.8,   0.00,   0.00, 1021.9,   63.4, -999.0
23-05-2023, 00:46:24,     17,    0.0,    7.9,   0.00,   0.00, 1021.9,   63.3, -999.0
23-05-2023, 00:46:34,      0,    0.0,    7.8,   0.00,   0.00, 1021.9,   63.4, -999.0
23-05-2023, 00:46:44,      0,    0.0,    7.8,   0.00,   0.00, 1021.9,   63.3, -999.0
23-05-2023, 00:46:54,      0,    0.0,    8.0,   0.00,   0.00, 1021.9,   63.2, -999.0